Regional Weather Roundup
Issued by NWS Little Rock, AR

Home | Current Version | Previous Version | Text Only | Print | Product List | Glossary Off
Versions: 1 2 3 4 5 6 7 8 9 10 11 12 13 14 15 16 17 18 19 20 21 22 23 24 25 26 27 28 29 30 31 32 33 34 35 36 37 38 39 40 41 42 43 44 45 46 47 48 49 50

000
ASUS44 KLZK 051405
RWRLZK

WEATHER ROUNDUP FOR ARKANSAS
NATIONAL WEATHER SERVICE LITTLE ROCK AR
900 AM CDT THU MAY 05 2016

NOTE: "FAIR" INDICATES FEW OR NO CLOUDS BELOW 12,000 FEET WITH NO
SIGNIFICANT WEATHER AND/OR OBSTRUCTIONS TO VISIBILITY.

ARZ001-003-010-029-051500-
NORTHWEST ARKANSAS

CITY           SKY/WX    TMP DP  RH WIND       PRES   REMARKS
FAYETTEVILLE     N/A     54  47  77 CALM      30.08R
FORT SMITH     SUNNY     59  46  62 CALM      30.07R
HARRISON       SUNNY     59  40  49 W7        30.05R
BENTONVILLE    SUNNY     61  41  48 CALM      30.09R
ROGERS         SUNNY     58  45  62 NW3       30.09R
SILOAM SPGS    SUNNY     57  43  58 CALM      30.09R
HIGHFILL       SUNNY     61  50  67 CALM      30.07R
SPRINGDALE     SUNNY     57  43  58 CALM      30.09R
$$

ARZ004-005-016-051500-
NORTH CENTRAL ARKANSAS

CITY           SKY/WX    TMP DP  RH WIND       PRES   REMARKS
BATESVILLE     MOSUNNY   57  45  62 NW5       30.02R
FLIPPIN        SUNNY    N/A N/A N/A N3        30.01R
MTN HOME       SUNNY     57  43  59 MISG      30.03R
$$

ARZ040-041-051500-
WEST CENTRAL ARKANSAS

CITY           SKY/WX    TMP DP  RH WIND       PRES   REMARKS
MENA           SUNNY     64  43  45 CALM      30.07R
MOUNT IDA      SUNNY     61  47  59 CALM      30.03R
$$

ARZ009-017-025-026-028-051500-
NORTHEAST ARKANSAS

CITY           SKY/WX    TMP DP  RH WIND       PRES   REMARKS
CORNING          N/A     59  43  55 NW12      29.99R
JONESBORO      SUNNY     59  42  53 NW8       29.98R
NEWPORT        SUNNY     62  43  49 NW10      30.01R
WALNUT RIDGE   SUNNY     57  39  51 NW13      29.99R
BLYTHEVILLE      N/A     61  46  57 NW14      29.95R
NW BLYTHEVILLE SUNNY     61  43  51 N10G18    29.95R
$$

ARZ022-023-033-042-044-051500-
CENTRAL ARKANSAS

CITY           SKY/WX    TMP DP  RH WIND       PRES   REMARKS
LITTLE ROCK    SUNNY     65  44  46 NW9       30.03R
N LITTLE ROCK    N/A     60  46  58 NW5       30.02R
JACKSONVILLE   SUNNY     62  47  58 NW7       30.02R
SEARCY         SUNNY     63  46  54 VRB6      30.03R
HOT SPRINGS    SUNNY     62  47  57 VRB5      30.05R
RUSSELLVILLE   SUNNY     59  48  67 W5        30.06R
CLINTON        FAIR      57  46  67 CALM      30.04S
$$

ARZ036-051500-
EAST ARKANSAS

CITY           SKY/WX    TMP DP  RH WIND       PRES   REMARKS
WEST MEMPHIS   SUNNY     60  48  64 VRB6      29.96R
$$

ARZ050-053-066-070-073-051500-
SOUTHWEST ARKANSAS

CITY           SKY/WX    TMP DP  RH WIND       PRES   REMARKS
ARKADELPHIA    FAIR      65  51  60 N6        30.05R
CAMDEN         SUNNY     63  48  59 N5        30.04S
TEXARKANA      SUNNY     65  46  50 N5        30.06R
EL DORADO      SUNNY     63  48  58 N5        30.04R
DE QUEEN       SUNNY     59  53  80 CALM      30.06R
$$

ARZ056-057-069-051500-
SOUTHEAST ARKANSAS

CITY           SKY/WX    TMP DP  RH WIND       PRES   REMARKS
PINE BLUFF     SUNNY     62  47  57 NW6       30.03R
STUTTGART      SUNNY     63  46  55 W8        30.02R
MONTICELLO     SUNNY     64  45  49 NW6       30.02R

$$





USA.gov is the U.S. government's official web portal to all federal, state and local government web resources and services.